Theta_e
301 300 301 301 301 304 305 307 309 309 311 311 311 309 309 309 309 309 310 310 308 309
301 301 301 301 303 306 307 308 308 308 310 309 309 309 309 309 308 309 309 309 309 308
301 301 301 302 303 304 305 304 305 307 307 307 307 309 309 310 308 308 308 308 307 307
303 302 302 301 302 302 303 304 304 304 304 305 306 307 309 311 310 309 308 308 308 307
304 306 305 302 301 302 303 304 303 303 303 304 305 306 308 309 309 307 306 306 307 306
303 304 304 304 303 303 303 303 303 303 302 303 304 305 306 307 306 306 305 304 304 304
304 305 305 305 305 305 304 303 304 303 302 303 304 304 305 306 306 306 307 306 307 306
306 307 307 307 307 306 307 307 307 303 303 304 305 306 304 305 305 305 306 307 307 309
306 307 305 306 307 307 306 307 306 303 303 303 304 303 306 305 305 305 305 305 306 308
308 306 306 306 305 305 304 303 302 302 302 303 304 301 300 305 306 306 306 306 306 306
307 306 306 306 305 304 304 303 302 302 302 301 301 299 299 301 306 307 306 306 306 305
306 306 304 305 306 306 305 305 304 303 303 303 301 298 298 301 305 306 307 307 306 304
306 305 305 302 304 308 308 306 306 304 302 300 299 296 296 299 305 307 307 308 308 303
306 305 302 298 301 302 306 306 305 305 302 301 299 297 295 295 299 300 302 303 303 304
Wind_Speed
6 4 4 4 5 4 4 5 6 5 5 7 8 4 4 2 3 3 3 5 4 3
6 5 5 6 5 4 5 5 5 5 7 8 7 6 4 4 5 5 5 5 5 4
5 5 5 5 7 7 6 5 5 5 5 5 6 7 6 4 5 6 4 4 7 6
5 5 4 4 5 5 5 6 5 5 6 7 8 7 5 5 6 7 6 6 7 7
5 5 5 5 5 5 5 4 4 5 6 6 7 7 6 6 6 6 6 5 6 5
5 5 5 5 4 4 5 5 4 5 6 6 6 6 6 6 6 6 6 5 5 4
5 5 5 4 4 4 4 4 4 4 4 4 4 5 5 5 5 5 5 5 5 5
5 4 4 4 4 4 4 3 3 4 4 4 5 4 4 4 5 5 5 5 4 4
5 5 4 4 5 4 4 4 4 4 4 4 3 8 6 4 4 4 4 5 4 3
5 5 5 4 3 4 4 4 4 4 4 4 4 7 6 3 2 1 1 2 2 2
5 5 5 4 4 3 2 2 2 3 4 4 4 10 7 5 1 1 2 2 2 2
5 5 5 5 4 2 2 2 2 2 4 4 4 8 8 3 2 1 3 3 3 3
4 4 4 4 4 2 1 1 2 2 3 5 5 5 8 6 1 2 3 3 4 5
4 4 3 3 2 3 3 2 3 3 4 4 4 7 9 8 3 3 4 3 3 4
Wind_Direction
341 339 324 318 325 320 319 321 320 323 357 19 357 302 324 23 30 36 65 84 88 92
340 345 331 328 315 329 328 333 345 7 7 4 347 346 354 38 48 57 63 74 88 77
322 333 334 335 348 343 339 343 0 14 12 356 355 360 10 39 64 71 54 59 72 61
322 331 351 356 342 336 333 356 23 12 8 14 6 8 10 41 59 69 63 56 70 65
316 326 353 2 344 338 357 1 15 18 25 19 14 15 24 50 52 51 54 51 65 62
345 343 352 340 342 349 359 11 16 21 26 18 14 17 30 48 58 55 54 55 62 61
343 334 335 333 345 352 354 360 7 19 25 22 16 28 33 44 41 43 47 50 50 50
337 338 347 339 348 343 350 355 30 35 30 23 25 16 31 39 44 40 38 36 32 23
336 342 348 333 352 350 13 28 37 31 32 28 25 9 35 61 51 47 37 23 11 0
345 354 0 7 23 30 34 34 40 25 16 15 357 354 354 8 67 56 323 310 327 343
359 357 358 26 33 22 36 36 18 10 0 358 359 355 334 335 325 299 277 274 273 303
347 357 0 14 356 10 14 13 16 350 355 358 353 0 6 4 349 291 291 278 264 273
341 343 351 341 345 321 37 355 349 18 15 357 343 358 16 12 349 355 346 321 317 309
341 342 15 334 352 339 346 345 346 346 342 347 352 332 352 359 355 339 317 315 325 318